Weather History for PAFA - July, 2013

Change the Weather History Date:

Monday, July 29, 2013

  Actual Average Record
Temperature  
Mean Temperature 72 °F 61 °F  
Max Temperature 80 °F 70 °F 95 °F (1919)
Min Temperature 63 °F 51 °F 33 °F (1929)
Degree Days  
Heating Degree Days 0 5  
Month to date heating degree days 69 100  
Since 1 June heating degree days 140 260  
Since 1 July heating degree days 69 100  
Cooling Degree Days 7 0  
Month to date cooling degree days 50 29  
Year to date cooling degree days 198 53  
Since 1 June cooling degree days 185 52  
Growing Degree Days 22 (Base 50)    
Moisture  
Dew Point 53 °F    
Average Humidity 50    
Maximum Humidity 73    
Minimum Humidity 27    
Precipitation  
Precipitation 0.00 in 0.07 in 0.77 in (2008)
Month to date precipitation 1.01 2.01  
Year to date precipitation 3.78 5.54  
Snow  
Snow 0.00 in 0.00 in 0.00 in (2002)
Month to date snowfall 0.0 0.0  
Since 1 June snowfall 0.0 0.0  
Since 1 July snowfall 0.0 0.0  
Snow Depth 0.00 in    
Sea Level Pressure  
Sea Level Pressure 30.10 in    
Wind  
Wind Speed 7 mph (WSW)    
Max Wind Speed 16 mph    
Max Gust Speed 22 mph    
Visibility 10 miles    
Events      
T = Trace of Precipitation, MM = Missing Value Source: NWS Daily Summary

Daily Weather History Graph

Daily Weather History Graph

Search for Another Location

Airport or City:

Trip Planner

Search our weather history database for the weather conditions in past years. The results will help you decide how hot, cold, wet, or windy it might be!

Date:

Astronomy

Jul. 29, 2013 Rise Set
Actual Time 4:42 AM AKDT 11:10 PM AKDT
Civil Twilight 2:47 AM AKDT 12:58 AM AKDT
Nautical Twilight Sun does not rise Sun does not rise
Astronomical Twilight Sun does not rise Sun does not rise
Moon 11:36 PM AKDT (7/29) 4:09 PM AKDT (7/29)
Length of Visible Light 22h 10m
Length of Day
18h 27m
Waning Gibbous, 49% of the Moon is Illuminated
Jul 29
Waning Gibbous
Aug 6
New
Aug 14
First Quarter
Aug 20
Full
Aug 28
Last Quarter

Hourly Weather History & Observations

Time (AKDT) Temp. Dew Point Humidity Pressure Visibility Wind Dir Wind Speed Gust Speed Precip Events Conditions
12:53 AM 75.9 °F 54.0 °F 46% 30.05 in 10.0 mi WSW 5.8 mph - N/A   Mostly Cloudy
1:53 AM 73.0 °F 54.0 °F 51% 30.07 in 10.0 mi Variable 5.8 mph - N/A   Mostly Cloudy
2:53 AM 71.1 °F 55.0 °F 57% 30.08 in 10.0 mi SSW 4.6 mph - N/A   Mostly Cloudy
3:53 AM 66.9 °F 55.0 °F 66% 30.09 in 10.0 mi SSW 5.8 mph - N/A   Mostly Cloudy
4:53 AM 69.1 °F 53.1 °F 57% 30.09 in 10.0 mi WSW 6.9 mph - N/A   Mostly Cloudy
5:53 AM 66.0 °F 53.1 °F 63% 30.10 in 10.0 mi SSW 5.8 mph - N/A   Mostly Cloudy
6:53 AM 64.9 °F 55.0 °F 70% 30.11 in 10.0 mi WSW 4.6 mph - N/A   Mostly Cloudy
7:53 AM 66.0 °F 55.9 °F 70% 30.11 in 10.0 mi SSW 4.6 mph - N/A   Mostly Cloudy
8:53 AM 68.0 °F 55.9 °F 65% 30.12 in 10.0 mi SSW 5.8 mph - N/A   Mostly Cloudy
9:53 AM 70.0 °F 55.9 °F 61% 30.12 in 10.0 mi SW 4.6 mph - N/A   Mostly Cloudy
10:53 AM 72.0 °F 53.1 °F 51% 30.12 in 10.0 mi West 9.2 mph - N/A   Mostly Cloudy
11:53 AM 75.0 °F 55.0 °F 50% 30.12 in 10.0 mi WSW 9.2 mph - N/A   Mostly Cloudy
12:53 PM 75.0 °F 54.0 °F 48% 30.12 in 10.0 mi WSW 8.1 mph - N/A   Mostly Cloudy
1:53 PM 77.0 °F 54.0 °F 45% 30.12 in 10.0 mi West 11.5 mph 21.9 mph N/A   Mostly Cloudy
2:53 PM 75.9 °F 52.0 °F 43% 30.11 in 10.0 mi West 10.4 mph 19.6 mph N/A   Mostly Cloudy
3:53 PM 79.0 °F 51.1 °F 38% 30.10 in 10.0 mi West 11.5 mph - N/A   Mostly Cloudy
4:53 PM 79.0 °F 51.1 °F 38% 30.09 in 10.0 mi WSW 11.5 mph - N/A   Scattered Clouds
5:53 PM 79.0 °F 48.0 °F 34% 30.08 in 10.0 mi WNW 16.1 mph - N/A   Scattered Clouds
6:53 PM 79.0 °F 48.9 °F 35% 30.08 in 10.0 mi WNW 11.5 mph - N/A   Scattered Clouds
7:53 PM 78.1 °F 51.1 °F 39% 30.08 in 10.0 mi WNW 9.2 mph - N/A   Scattered Clouds
8:53 PM 75.9 °F 51.1 °F 42% 30.08 in 10.0 mi West 9.2 mph - N/A   Partly Cloudy
9:53 PM 73.9 °F 51.1 °F 45% 30.09 in 10.0 mi West 5.8 mph - N/A   Partly Cloudy
10:53 PM 70.0 °F 51.1 °F 51% 30.10 in 10.0 mi Calm Calm - N/A   Partly Cloudy
11:53 PM 64.0 °F 55.0 °F 73% 30.11 in 10.0 mi Calm Calm - N/A   Scattered Clouds